When you browse on this site, cookies collect data to enhance your experience and personalize the content and advertising you see.
Visit our Privacy Policy to learn more. By continuing to use the site, you agree to this use of cookies and data.
  • En España
  • Lista de países
  • Para 7 días
  • Temperatura del agua
  • El tiempo en el mapa
  • Informadores
  • user-avatar
    Iniciar sesión

    Tiempo cada hora San Miguel de Tucumán

    Hoy, 17 Octubre, Jueves

    Tiempo Temperatura Precipitaciones Viento Presión Humedad
    00:00 +13°C° 0 mm 1 mps 719 mmHg 78%
    01:00 +13°C° 0 mm 1 mps 719 mmHg 80%
    02:00 +12°C° 0 mm 1 mps 719 mmHg 81%
    03:00 +12°C° 0 mm 1 mps 719 mmHg 84%
    04:00 +12°C° 0 mm 1 mps 719 mmHg 86%
    05:00 +11°C° 0 mm 1 mps 719 mmHg 88%
    06:00 +13°C° 0 mm 1 mps 720 mmHg 81%
    07:00 +15°C° 0 mm 1 mps 720 mmHg 75%
    08:00 +16°C° 0 mm 1 mps 721 mmHg 68%
    09:00 +18°C° 0 mm 2 mps 721 mmHg 62%
    10:00 +20°C° 0 mm 2 mps 721 mmHg 55%
    11:00 +23°C° 0 mm 2 mps 721 mmHg 49%
    12:00 +24°C° 0 mm 2 mps 720 mmHg 46%
    13:00 +25°C° 0 mm 2 mps 719 mmHg 44%
    14:00 +26°C° 0 mm 2 mps 719 mmHg 41%
    15:00 +26°C° 0 mm 2 mps 719 mmHg 42%
    16:00 +25°C° 0 mm 2 mps 718 mmHg 42%
    17:00 +25°C° 0 mm 2 mps 718 mmHg 43%
    18:00 +23°C° 0 mm 1 mps 719 mmHg 49%
    19:00 +22°C° 0 mm 1 mps 720 mmHg 54%
    20:00 +20°C° 0 mm 1 mps 721 mmHg 60%
    21:00 +19°C° 0 mm 1 mps 721 mmHg 62%
    22:00 +19°C° 0 mm 1 mps 721 mmHg 64%
    23:00 +18°C° 0 mm 1 mps 721 mmHg 66%

    Mañana, 18 Octubre, Viernes

    Tiempo Temperatura Precipitaciones Viento Presión Humedad
    00:00 +18°C° 0 mm 1 mps 721 mmHg 68%
    01:00 +18°C° 0 mm 1 mps 721 mmHg 70%
    02:00 +16°C° 0 mm 1 mps 721 mmHg 72%
    03:00 +16°C° 0 mm 1 mps 721 mmHg 73%
    04:00 +16°C° 0 mm 1 mps 721 mmHg 74%
    05:00 +15°C° 0 mm 1 mps 721 mmHg 76%
    06:00 +18°C° 0 mm 1 mps 722 mmHg 71%
    07:00 +19°C° 0 mm 1 mps 723 mmHg 67%
    08:00 +20°C° 0 mm 1 mps 723 mmHg 63%
    09:00 +22°C° 0 mm 1 mps 723 mmHg 58%
    10:00 +23°C° 0 mm 2 mps 723 mmHg 54%
    11:00 +25°C° 0 mm 2 mps 723 mmHg 50%
    12:00 +25°C° 0 mm 2 mps 723 mmHg 49%
    13:00 +25°C° 0 mm 2 mps 722 mmHg 48%
    14:00 +26°C° 0 mm 2 mps 722 mmHg 47%
    15:00 +25°C° 0 mm 2 mps 721 mmHg 50%
    16:00 +24°C° 0 mm 2 mps 721 mmHg 53%
    17:00 +24°C° 0 mm 1 mps 721 mmHg 56%
    18:00 +23°C° 0 mm 1 mps 721 mmHg 60%
    19:00 +22°C° 0 mm 1 mps 722 mmHg 64%
    20:00 +21°C° 0 mm 1 mps 722 mmHg 68%
    21:00 +20°C° 0 mm 1 mps 723 mmHg 68%
    22:00 +20°C° 0 mm 1 mps 723 mmHg 68%
    23:00 +20°C° 0 mm 1 mps 724 mmHg 69%

    Pasado mañana, 19 Octubre, Sábado

    Tiempo Temperatura Precipitaciones Viento Presión Humedad
    00:00 +20°C° 0 mm 1 mps 724 mmHg 69%
    01:00 +20°C° 0 mm 1 mps 724 mmHg 69%
    02:00 +20°C° 0 mm 1 mps 724 mmHg 69%
    03:00 +20°C° 0.1 mm 1 mps 724 mmHg 71%
    04:00 +20°C° 0.1 mm 1 mps 724 mmHg 72%
    05:00 +18°C° 0.1 mm 0 mps 724 mmHg 74%
    06:00 +20°C° 0.1 mm 1 mps 724 mmHg 73%
    07:00 +20°C° 0.1 mm 1 mps 724 mmHg 73%
    08:00 +21°C° 0.1 mm 1 mps 724 mmHg 73%
    09:00 +21°C° 0.1 mm 1 mps 724 mmHg 70%
    10:00 +22°C° 0.1 mm 1 mps 724 mmHg 67%
    11:00 +23°C° 0.1 mm 2 mps 724 mmHg 63%
    12:00 +23°C° 0.3 mm 2 mps 723 mmHg 66%
    13:00 +22°C° 0.3 mm 3 mps 722 mmHg 68%
    14:00 +22°C° 0.3 mm 3 mps 721 mmHg 70%
    15:00 +21°C° 0.2 mm 3 mps 721 mmHg 71%
    16:00 +21°C° 0.2 mm 3 mps 720 mmHg 73%
    17:00 +20°C° 0.2 mm 3 mps 720 mmHg 74%
    18:00 +19°C° 0.1 mm 2 mps 720 mmHg 75%
    19:00 +19°C° 0.1 mm 2 mps 720 mmHg 76%
    20:00 +18°C° 0.1 mm 2 mps 721 mmHg 78%
    21:00 +17°C° 0 mm 2 mps 721 mmHg 80%
    22:00 +17°C° 0 mm 2 mps 720 mmHg 81%
    23:00 +16°C° 0 mm 2 mps 720 mmHg 83%

    20 Octubre, Domingo

    Tiempo Temperatura Precipitaciones Viento Presión Humedad
    00:00 +16°C° 0 mm 1 mps 720 mmHg 84%
    01:00 +16°C° 0 mm 1 mps 719 mmHg 85%
    02:00 +16°C° 0 mm 1 mps 719 mmHg 86%
    03:00 +16°C° 0 mm 1 mps 719 mmHg 86%
    04:00 +15°C° 0 mm 0 mps 719 mmHg 87%
    05:00 +14°C° 0 mm 0 mps 719 mmHg 88%
    06:00 +16°C° 0 mm 1 mps 719 mmHg 85%
    07:00 +18°C° 0 mm 1 mps 719 mmHg 82%
    08:00 +17°C° 0 mm 2 mps 719 mmHg 79%
    09:00 +18°C° 0 mm 2 mps 719 mmHg 74%
    10:00 +19°C° 0 mm 2 mps 719 mmHg 69%
    11:00 +20°C° 0 mm 2 mps 719 mmHg 64%
    12:00 +23°C° 0 mm 2 mps 719 mmHg 57%
    13:00 +25°C° 0 mm 2 mps 719 mmHg 51%
    14:00 +27°C° 0 mm 2 mps 719 mmHg 45%
    15:00 +27°C° 0 mm 2 mps 719 mmHg 45%
    16:00 +26°C° 0 mm 2 mps 719 mmHg 45%
    17:00 +26°C° 0 mm 2 mps 719 mmHg 46%
    18:00 +24°C° 0 mm 2 mps 719 mmHg 52%
    19:00 +21°C° 0 mm 2 mps 720 mmHg 59%
    20:00 +21°C° 0 mm 1 mps 721 mmHg 66%
    21:00 +20°C° 0 mm 1 mps 721 mmHg 70%
    22:00 +19°C° 0 mm 1 mps 721 mmHg 75%
    23:00 +18°C° 0 mm 1 mps 722 mmHg 79%

    21 Octubre, Lunes

    Tiempo Temperatura Precipitaciones Viento Presión Humedad
    00:00 +18°C° 0 mm 1 mps 721 mmHg 82%
    01:00 +16°C° 0 mm 1 mps 721 mmHg 85%
    02:00 +15°C° 0 mm 1 mps 721 mmHg 89%
    03:00 +15°C° 0 mm 1 mps 721 mmHg 89%
    04:00 +15°C° 0 mm 1 mps 721 mmHg 90%
    05:00 +15°C° 0 mm 1 mps 721 mmHg 90%
    06:00 +16°C° 0 mm 1 mps 722 mmHg 83%
    07:00 +19°C° 0 mm 1 mps 723 mmHg 75%
    08:00 +21°C° 0 mm 1 mps 723 mmHg 68%
    09:00 +23°C° 0 mm 1 mps 723 mmHg 60%
    10:00 +25°C° 0 mm 2 mps 723 mmHg 52%
    11:00 +27°C° 0 mm 2 mps 723 mmHg 44%
    12:00 +28°C° 0 mm 2 mps 723 mmHg 40%
    13:00 +28°C° 0 mm 3 mps 722 mmHg 36%
    14:00 +29°C° 0 mm 3 mps 721 mmHg 33%
    15:00 +28°C° 0 mm 2 mps 721 mmHg 34%
    16:00 +27°C° 0 mm 2 mps 721 mmHg 35%
    17:00 +26°C° 0 mm 1 mps 720 mmHg 36%
    18:00 +25°C° 0 mm 1 mps 721 mmHg 39%
    19:00 +23°C° 0 mm 1 mps 721 mmHg 43%
    20:00 +22°C° 0 mm 1 mps 722 mmHg 46%
    21:00 +21°C° 0 mm 1 mps 722 mmHg 47%
    22:00 +21°C° 0 mm 1 mps 723 mmHg 48%
    23:00 +20°C° 0 mm 1 mps 723 mmHg 49%

    22 Octubre, Martes

    Tiempo Temperatura Precipitaciones Viento Presión Humedad
    00:00 +19°C° 0 mm 1 mps 723 mmHg 51%
    01:00 +19°C° 0 mm 1 mps 722 mmHg 54%
    02:00 +18°C° 0 mm 1 mps 722 mmHg 56%
    03:00 +16°C° 0 mm 1 mps 722 mmHg 58%
    04:00 +16°C° 0 mm 1 mps 722 mmHg 61%
    05:00 +15°C° 0 mm 1 mps 723 mmHg 64%
    06:00 +18°C° 0 mm 1 mps 723 mmHg 59%
    07:00 +20°C° 0 mm 1 mps 723 mmHg 54%
    08:00 +21°C° 0 mm 1 mps 724 mmHg 49%
    09:00 +23°C° 0 mm 1 mps 724 mmHg 45%
    10:00 +25°C° 0 mm 2 mps 723 mmHg 40%
    11:00 +27°C° 0 mm 2 mps 723 mmHg 35%
    12:00 +28°C° 0 mm 3 mps 722 mmHg 33%
    13:00 +28°C° 0 mm 3 mps 721 mmHg 32%
    14:00 +29°C° 0 mm 3 mps 720 mmHg 30%
    15:00 +29°C° 0 mm 3 mps 720 mmHg 30%
    16:00 +29°C° 0 mm 3 mps 719 mmHg 30%
    17:00 +29°C° 0 mm 3 mps 718 mmHg 30%
    18:00 +27°C° 0 mm 3 mps 719 mmHg 33%
    19:00 +25°C° 0 mm 3 mps 719 mmHg 37%
    20:00 +23°C° 0 mm 2 mps 719 mmHg 40%
    21:00 +21°C° 0 mm 2 mps 719 mmHg 43%
    22:00 +21°C° 0 mm 2 mps 720 mmHg 45%
    23:00 +20°C° 0 mm 2 mps 720 mmHg 47%
    Mostrar más